Flag for U.S.A. Weather past 2 weeks in Hartford, Connecticut, U.S.A.

Now
47 °F

Partly sunny.


Feels Like: 43 °F
Forecast: 35 / 48 °F
Wind: 8 mph from South

Location: Hartford-Brainard Airport

Current Time: Mar 31, 2015 at 2:36:32 PM

Latest Report: Mar 31, 2015 at 1:53 PM


Visibility: 10 mi

Pressure: 29.74 "Hg

Humidity: 37%

Dew point: 22 °F

Location of HartfordLocation

Historic Weather in Hartford — Graph

°F

Hartford temperature yesterday

Maximum temperature yesterday: 48 °F (at 4:53 PM)
Minimum temperature yesterday: 32 °F (at 12:53 AM)
Average temperature yesterday: 39 °F

Past Weeks' High & Low Weather Summary

 TemperatureHumidityPressure
High51 °F (Mar 17, 2:53 PM)100% (Mar 26, 4:53 AM)30.42 "Hg (Mar 26, 4:53 AM)
Low19 °F (Mar 23, 4:53 AM)17% (Mar 29, 4:53 PM)29.48 "Hg (Mar 17, 2:53 PM)
Average34 °F58%30.02 "Hg
* Reported Mar 16 12:53 PM — Mar 31 12:53 PM, Hartford, Weather by CustomWeather, © 2015

Note: Actual official high and low records may vary slightly from our data, if they occured in-between our weather recording intervals... More about our weather records

Advertising

Hartford weather history for previous 24 hours

 ConditionsComfort  
Time TempWeatherWind HumidityBarometerVisibility
12:53 PM
Tue, Mar 31
47 °FPartly sunny.12 mph37%29.76 "Hg10 mi
11:53 AM46 °FScattered clouds.10 mph40%29.79 "Hg10 mi
10:53 AM44 °FPassing clouds.8 mph43%29.82 "Hg10 mi
9:53 AM42 °FOvercast.8 mph51%29.82 "Hg10 mi
8:53 AM41 °FSunny.12 mph58%29.83 "Hg10 mi
7:53 AM38 °FPassing clouds.13 mph65%29.83 "Hg10 mi
6:53 AM29 °FClear.6 mph89%29.81 "Hg10 mi
5:53 AM31 °FPassing clouds.N/A89%29.80 "Hg10 mi
4:53 AM36 °FClear.7 mph73%29.78 "Hg10 mi
3:53 AM36 °FClear.10 mph75%29.77 "Hg10 mi
2:53 AM37 °FClear.12 mph73%29.78 "Hg10 mi
1:53 AM38 °FClear.6 mph73%29.79 "Hg10 mi
12:53 AM38 °FPartly cloudy.3 mph76%29.79 "Hg10 mi
11:53 PM
Mon, Mar 30
38 °FPartly cloudy.5 mph68%29.80 "Hg10 mi
10:53 PM41 °FMostly cloudy.13 mph55%29.82 "Hg10 mi
9:53 PM37 °FClear.3 mph67%29.80 "Hg10 mi
8:53 PM38 °FClear.5 mph60%29.78 "Hg10 mi
7:53 PM44 °FPassing clouds.3 mph49%29.77 "Hg10 mi
6:53 PM47 °FPartly sunny.9 mph44%29.76 "Hg10 mi
5:53 PM47 °FOvercast.13 mph44%29.75 "Hg10 mi
4:53 PM48 °FOvercast.9 mph46%29.73 "Hg10 mi
3:53 PM47 °FMore clouds than sun.12 mph52%29.73 "Hg10 mi
2:53 PM46 °FOvercast.12 mph54%29.74 "Hg10 mi
Weather by CustomWeather, © 2015

See weather overviewHow to use our weather pages